ARG4522 SAZR-SAEZ

Flight info

Callsign ARG4522
Flight time 0h 48m
Altitude 31000
Route TIMKU2C TIMKU DCT IRASU UW68 ASADA ASADA7U
Aircraft B738/M-SDE2E3FGHIRWXY/LB1

Departure

Time 2026-04-17 10:22
Airport Santa Rosa Airport (SAZR)

Arrival

Time 2026-04-17 11:10
Airport Ezeiza International Airport - Ministro Pistarini (SAEZ)
Time Latitude Longitude Altitude Speed Heading
2026-04-17 10:08 -36.59177 -64.27899 626 ft 0 kts 268°
2026-04-17 10:15 -36.59178 -64.27896 626 ft 4 kts 290°
2026-04-17 10:15 -36.59185 -64.27864 635 ft 4 kts 272°
2026-04-17 10:16 -36.59182 -64.27831 631 ft 4 kts 254°
2026-04-17 10:16 -36.59176 -64.27805 626 ft 1 kts 255°
2026-04-17 10:16 -36.59175 -64.27801 626 ft 0 kts 255°
2026-04-17 10:18 -36.59171 -64.27805 626 ft 1 kts 317°
2026-04-17 10:18 -36.59166 -64.27801 633 ft 1 kts 34°
2026-04-17 10:18 -36.59162 -64.27771 631 ft 10 kts 76°
2026-04-17 10:19 -36.59141 -64.27682 629 ft 11 kts 104°
2026-04-17 10:19 -36.59210 -64.27659 632 ft 11 kts 186°
2026-04-17 10:19 -36.59288 -64.27677 630 ft 14 kts 191°
2026-04-17 10:19 -36.59418 -64.27708 631 ft 22 kts 191°
2026-04-17 10:20 -36.59578 -64.27749 631 ft 25 kts 191°
2026-04-17 10:20 -36.59747 -64.27800 634 ft 19 kts 212°
2026-04-17 10:20 -36.59814 -64.27832 631 ft 3 kts 136°
2026-04-17 10:20 -36.59809 -64.27807 628 ft 3 kts 37°
2026-04-17 10:21 -36.59768 -64.27795 635 ft 24 kts 11°
2026-04-17 10:21 -36.59309 -64.27683 629 ft 108 kts 11°
2026-04-17 10:21 -36.58334 -64.27440 681 ft 172 kts 12°
2026-04-17 10:21 -36.57032 -64.27107 1111 ft 208 kts 12°
2026-04-17 10:22 -36.55540 -64.26726 1722 ft 226 kts 11°
2026-04-17 10:22 -36.53967 -64.26334 2504 ft 235 kts 11°
2026-04-17 10:22 -36.52324 -64.25895 3121 ft 250 kts 12°
2026-04-17 10:22 -36.50590 -64.25426 3834 ft 258 kts 12°
2026-04-17 10:23 -36.48821 -64.24922 4662 ft 263 kts 19°
2026-04-17 10:23 -36.47290 -64.23737 5451 ft 266 kts 47°
2026-04-17 10:23 -36.46309 -64.21790 6266 ft 270 kts 69°
2026-04-17 10:23 -36.45671 -64.19576 7008 ft 275 kts 72°
2026-04-17 10:24 -36.45076 -64.17297 7773 ft 280 kts 72°
2026-04-17 10:24 -36.44480 -64.14978 8550 ft 284 kts 72°
2026-04-17 10:24 -36.43870 -64.12627 9319 ft 289 kts 71°
2026-04-17 10:24 -36.43242 -64.10232 10048 ft 294 kts 71°
2026-04-17 10:25 -36.42600 -64.07806 10759 ft 298 kts 70°
2026-04-17 10:25 -36.41943 -64.05343 11390 ft 306 kts 70°
2026-04-17 10:25 -36.41242 -64.02733 11585 ft 331 kts 70°
2026-04-17 10:25 -36.40486 -63.99927 11768 ft 354 kts 70°
2026-04-17 10:26 -36.39681 -63.96943 12004 ft 374 kts 70°
2026-04-17 10:26 -36.38845 -63.93847 12533 ft 382 kts 70°
2026-04-17 10:26 -36.37996 -63.90703 13215 ft 386 kts 70°
2026-04-17 10:26 -36.37138 -63.87532 13885 ft 390 kts 70°
2026-04-17 10:27 -36.36268 -63.84320 14477 ft 395 kts 70°
2026-04-17 10:27 -36.35387 -63.81071 15054 ft 400 kts 70°
2026-04-17 10:27 -36.34493 -63.77785 15642 ft 405 kts 70°
2026-04-17 10:27 -36.33573 -63.74466 16233 ft 409 kts 68°
2026-04-17 10:28 -36.32336 -63.71280 16797 ft 412 kts 59°
2026-04-17 10:28 -36.30911 -63.68178 17359 ft 416 kts 58°
2026-04-17 10:28 -36.29422 -63.65074 17918 ft 421 kts 57°
2026-04-17 10:28 -36.27911 -63.61944 18430 ft 426 kts 58°
2026-04-17 10:29 -36.26394 -63.58774 18934 ft 429 kts 58°
2026-04-17 10:29 -36.24879 -63.55572 19477 ft 431 kts 58°
2026-04-17 10:29 -36.23368 -63.52351 20020 ft 434 kts 58°
2026-04-17 10:29 -36.21851 -63.49098 20537 ft 437 kts 58°
2026-04-17 10:30 -36.20328 -63.45822 21029 ft 440 kts 58°
2026-04-17 10:30 -36.18816 -63.42569 21500 ft 443 kts 58°
2026-04-17 10:30 -36.17270 -63.39241 21986 ft 446 kts 58°
2026-04-17 10:30 -36.15717 -63.35901 22457 ft 449 kts 58°
2026-04-17 10:31 -36.14153 -63.32541 22918 ft 452 kts 58°
2026-04-17 10:31 -36.12578 -63.29164 23366 ft 455 kts 58°
2026-04-17 10:31 -36.10987 -63.25755 23768 ft 458 kts 58°
2026-04-17 10:31 -36.09391 -63.22340 24147 ft 460 kts 58°
2026-04-17 10:32 -36.07784 -63.18905 24511 ft 462 kts 58°
2026-04-17 10:32 -36.06170 -63.15458 24870 ft 465 kts 58°
2026-04-17 10:32 -36.04546 -63.11993 25227 ft 467 kts 58°
2026-04-17 10:32 -36.02911 -63.08510 25572 ft 470 kts 58°
2026-04-17 10:33 -36.01266 -63.05008 25910 ft 472 kts 58°
2026-04-17 10:33 -35.99614 -63.01494 26248 ft 475 kts 58°
2026-04-17 10:33 -35.97949 -62.97956 26580 ft 477 kts 58°
2026-04-17 10:33 -35.96276 -62.94405 26897 ft 480 kts 58°
2026-04-17 10:34 -35.94591 -62.90833 27200 ft 482 kts 58°
2026-04-17 10:34 -35.92897 -62.87246 27502 ft 485 kts 58°
2026-04-17 10:34 -35.91194 -62.83643 27809 ft 487 kts 58°
2026-04-17 10:34 -35.89482 -62.80025 28105 ft 489 kts 58°
2026-04-17 10:35 -35.87786 -62.76445 28380 ft 492 kts 58°
2026-04-17 10:35 -35.86055 -62.72795 28658 ft 494 kts 58°
2026-04-17 10:35 -35.84315 -62.69130 28961 ft 496 kts 58°
2026-04-17 10:35 -35.82574 -62.65464 29359 ft 495 kts 57°
2026-04-17 10:36 -35.80833 -62.61804 29803 ft 494 kts 57°
2026-04-17 10:36 -35.79100 -62.58163 30193 ft 493 kts 57°
2026-04-17 10:36 -35.77365 -62.54524 30537 ft 492 kts 57°
2026-04-17 10:36 -35.75635 -62.50898 30877 ft 491 kts 57°
2026-04-17 10:37 -35.73897 -62.47261 30890 ft 495 kts 57°
2026-04-17 10:37 -35.70400 -62.39955 30899 ft 494 kts 57°
2026-04-17 10:38 -35.66937 -62.32730 30911 ft 488 kts 57°
2026-04-17 10:38 -35.63478 -62.25534 30921 ft 489 kts 57°
2026-04-17 10:39 -35.60015 -62.18343 30911 ft 489 kts 57°
2026-04-17 10:39 -35.56566 -62.11196 30913 ft 490 kts 56°
2026-04-17 10:40 -35.53090 -62.04007 30910 ft 489 kts 56°
2026-04-17 10:40 -35.49610 -61.96825 30910 ft 489 kts 56°
2026-04-17 10:41 -35.46130 -61.89657 30914 ft 490 kts 54°
2026-04-17 10:41 -35.42632 -61.82466 30916 ft 492 kts 54°
2026-04-17 10:42 -35.39259 -61.75125 30900 ft 499 kts 63°
2026-04-17 10:42 -35.37308 -61.66893 30931 ft 507 kts 76°
2026-04-17 10:43 -35.36013 -61.58373 30915 ft 510 kts 77°
2026-04-17 10:43 -35.34702 -61.49823 30912 ft 511 kts 77°
2026-04-17 10:44 -35.33330 -61.41285 30911 ft 511 kts 77°
2026-04-17 10:44 -35.31926 -61.32753 30909 ft 510 kts 77°
2026-04-17 10:45 -35.30518 -61.24241 30909 ft 509 kts 77°
2026-04-17 10:45 -35.29111 -61.15756 30910 ft 508 kts 77°
2026-04-17 10:46 -35.27742 -61.07530 30910 ft 506 kts 77°
2026-04-17 10:46 -35.26335 -60.99107 30909 ft 504 kts 77°
2026-04-17 10:47 -35.24927 -60.90718 30714 ft 504 kts 77°
2026-04-17 10:47 -35.24216 -60.86498 30048 ft 506 kts 77°
2026-04-17 10:47 -35.23506 -60.82289 29422 ft 503 kts 77°
2026-04-17 10:47 -35.22802 -60.78129 28890 ft 497 kts 77°
2026-04-17 10:48 -35.22103 -60.74000 28351 ft 493 kts 77°
2026-04-17 10:48 -35.21410 -60.69924 27813 ft 488 kts 77°
2026-04-17 10:48 -35.20723 -60.65883 27285 ft 484 kts 77°
2026-04-17 10:48 -35.20038 -60.61872 26765 ft 479 kts 77°
2026-04-17 10:49 -35.19359 -60.57900 26252 ft 475 kts 77°
2026-04-17 10:49 -35.18683 -60.53955 25739 ft 472 kts 77°
2026-04-17 10:49 -35.18012 -60.50046 25230 ft 469 kts 77°
2026-04-17 10:49 -35.17342 -60.46155 24705 ft 466 kts 77°
2026-04-17 10:50 -35.16676 -60.42287 24187 ft 464 kts 77°
2026-04-17 10:50 -35.16013 -60.38441 23672 ft 461 kts 77°
2026-04-17 10:50 -35.15351 -60.34617 23108 ft 459 kts 77°
2026-04-17 10:50 -35.14697 -60.30858 22518 ft 456 kts 77°
2026-04-17 10:51 -35.14038 -60.27082 21990 ft 452 kts 77°
2026-04-17 10:51 -35.13383 -60.23339 21481 ft 448 kts 77°
2026-04-17 10:51 -35.12734 -60.19632 20990 ft 444 kts 77°
2026-04-17 10:51 -35.12089 -60.15960 20500 ft 440 kts 77°
2026-04-17 10:52 -35.11449 -60.12314 20016 ft 437 kts 77°
2026-04-17 10:52 -35.10814 -60.08708 19547 ft 433 kts 77°
2026-04-17 10:52 -35.10180 -60.05114 19068 ft 430 kts 78°
2026-04-17 10:52 -35.09552 -60.01558 18592 ft 427 kts 78°
2026-04-17 10:53 -35.08926 -59.98020 18089 ft 425 kts 78°
2026-04-17 10:53 -35.08304 -59.94512 17633 ft 420 kts 78°
2026-04-17 10:53 -35.07689 -59.91050 17156 ft 416 kts 78°
2026-04-17 10:53 -35.07077 -59.87611 16688 ft 412 kts 78°
2026-04-17 10:54 -35.06472 -59.84216 16224 ft 408 kts 79°
2026-04-17 10:54 -35.05871 -59.80848 15773 ft 404 kts 79°
2026-04-17 10:54 -35.05275 -59.77515 15319 ft 400 kts 79°
2026-04-17 10:54 -35.04684 -59.74212 14862 ft 397 kts 79°
2026-04-17 10:55 -35.04097 -59.70933 14425 ft 394 kts 80°
2026-04-17 10:55 -35.03520 -59.67722 13987 ft 391 kts 80°
2026-04-17 10:55 -35.02939 -59.64492 13521 ft 388 kts 81°
2026-04-17 10:55 -35.02364 -59.61303 13085 ft 380 kts 81°
2026-04-17 10:56 -35.01801 -59.58193 12837 ft 371 kts 81°
2026-04-17 10:56 -35.01250 -59.55154 12572 ft 363 kts 81°
2026-04-17 10:56 -35.00709 -59.52163 12195 ft 359 kts 81°
2026-04-17 10:56 -35.00173 -59.49201 11843 ft 355 kts 81°
2026-04-17 10:57 -34.99647 -59.46303 11714 ft 345 kts 82°
2026-04-17 10:57 -34.99134 -59.43486 11553 ft 336 kts 82°
2026-04-17 10:57 -34.98635 -59.40745 11410 ft 327 kts 82°
2026-04-17 10:57 -34.98305 -59.38932 11315 ft 321 kts 82°
2026-04-17 10:58 -34.97834 -59.36348 11169 ft 311 kts 82°
2026-04-17 10:58 -34.97374 -59.33834 11030 ft 297 kts 83°
2026-04-17 10:58 -34.96932 -59.31421 10837 ft 289 kts 83°
2026-04-17 10:58 -34.96498 -59.29030 10551 ft 288 kts 83°
2026-04-17 10:59 -34.96065 -59.26649 10291 ft 287 kts 84°
2026-04-17 10:59 -34.95632 -59.24276 10007 ft 286 kts 84°
2026-04-17 10:59 -34.95199 -59.21906 9708 ft 287 kts 84°
2026-04-17 10:59 -34.94765 -59.19535 9395 ft 287 kts 84°
2026-04-17 11:00 -34.94331 -59.17169 9085 ft 286 kts 84°
2026-04-17 11:00 -34.93897 -59.14808 8781 ft 285 kts 84°
2026-04-17 11:00 -34.93463 -59.12454 8486 ft 284 kts 84°
2026-04-17 11:00 -34.93031 -59.10108 8193 ft 284 kts 84°
2026-04-17 11:01 -34.92600 -59.07774 7837 ft 280 kts 84°
2026-04-17 11:01 -34.92175 -59.05476 7503 ft 276 kts 84°
2026-04-17 11:01 -34.91754 -59.03211 7168 ft 271 kts 84°
2026-04-17 11:01 -34.91342 -59.00998 6881 ft 265 kts 84°
2026-04-17 11:02 -34.90827 -58.98865 6586 ft 266 kts 68°
2026-04-17 11:02 -34.89596 -58.97187 6335 ft 270 kts 37°
2026-04-17 11:02 -34.87934 -58.96154 6111 ft 265 kts 27°
2026-04-17 11:02 -34.86267 -58.95276 5885 ft 257 kts 26°
2026-04-17 11:03 -34.84648 -58.94423 5675 ft 250 kts 27°
2026-04-17 11:03 -34.83083 -58.93586 5451 ft 242 kts 27°
2026-04-17 11:03 -34.81585 -58.92776 5219 ft 237 kts 27°
2026-04-17 11:03 -34.80087 -58.91962 5033 ft 235 kts 27°
2026-04-17 11:04 -34.78585 -58.91144 4980 ft 237 kts 27°
2026-04-17 11:04 -34.77261 -58.90043 4946 ft 226 kts 60°
2026-04-17 11:04 -34.76809 -58.88321 4976 ft 210 kts 97°
2026-04-17 11:04 -34.76845 -58.86565 4983 ft 206 kts 100°
2026-04-17 11:05 -34.76939 -58.84818 4768 ft 208 kts 101°
2026-04-17 11:05 -34.77081 -58.83072 4513 ft 207 kts 104°
2026-04-17 11:05 -34.77313 -58.81361 4236 ft 203 kts 107°
2026-04-17 11:05 -34.77588 -58.79692 3967 ft 200 kts 108°
2026-04-17 11:06 -34.77876 -58.78041 3719 ft 200 kts 108°
2026-04-17 11:06 -34.78170 -58.76382 3447 ft 200 kts 108°
2026-04-17 11:06 -34.78457 -58.74751 3189 ft 195 kts 108°
2026-04-17 11:06 -34.78738 -58.73160 2936 ft 190 kts 108°
2026-04-17 11:07 -34.79013 -58.71609 2708 ft 184 kts 108°
2026-04-17 11:07 -34.79275 -58.70126 2447 ft 174 kts 108°
2026-04-17 11:07 -34.79516 -58.68760 2258 ft 159 kts 108°
2026-04-17 11:07 -34.79747 -58.67464 2065 ft 158 kts 108°
2026-04-17 11:08 -34.79980 -58.66159 1855 ft 157 kts 108°
2026-04-17 11:08 -34.80210 -58.64870 1646 ft 154 kts 108°
2026-04-17 11:08 -34.80433 -58.63609 1439 ft 152 kts 108°
2026-04-17 11:08 -34.80660 -58.62340 1248 ft 155 kts 108°
2026-04-17 11:09 -34.80888 -58.61059 1035 ft 155 kts 107°
2026-04-17 11:09 -34.81117 -58.59775 834 ft 157 kts 106°
2026-04-17 11:09 -34.81350 -58.58466 618 ft 157 kts 107°
2026-04-17 11:10 -34.81806 -58.55887 212 ft 156 kts 102°
2026-04-17 11:10 -34.82032 -58.54619 71 ft 146 kts 102°
2026-04-17 11:10 -34.82185 -58.53779 69 ft 65 kts 103°
2026-04-17 11:10 -34.82229 -58.53514 71 ft 16 kts 95°
2026-04-17 11:11 -34.82174 -58.53474 69 ft 10 kts 330°
2026-04-17 11:11 -34.82089 -58.53527 72 ft 16 kts 334°
2026-04-17 11:11 -34.81983 -58.53587 68 ft 17 kts 335°
2026-04-17 11:11 -34.81871 -58.53649 72 ft 20 kts 335°
2026-04-17 11:12 -34.81728 -58.53729 72 ft 25 kts 334°
2026-04-17 11:12 -34.81588 -58.53726 71 ft 22 kts 44°
2026-04-17 11:12 -34.81491 -58.53663 62 ft 11 kts 337°
2026-04-17 11:12 -34.81432 -58.53719 71 ft 9 kts 318°
2026-04-17 11:13 -34.81421 -58.53732 65 ft 0 kts 319°